User: anonymous   Login
Location: Unspecified
(0.0000°N, 0.0000°E)
Time: 03:41:55
(UTC+00:00)
Language:

ASTRA 1KR - Orbit

View from above orbital plane
View from above orbital plane
View from above satellite
View from above satellite

Ground track
Ground track

The orbit data is extracted from the following two-line orbital elements,

1 29055U 06012A   14298.06733015  .00000120  00000-0  00000+0 0  1690
2 29055 000.0587 282.4378 0005077 302.3797 212.0617 01.00275691 31146
Epoch (UTC): 25 October 2014 01:36:57
Eccentricity: 0.0005077
inclination: 0.0587°
perigee height: 35764 km
apogee height: 35806 km
right ascension of ascending node: 282.4378°
argument of perigee: 302.3797°
revolutions per day: 1.00275691
mean anomaly at epoch: 212.0617°
orbit number at epoch: 3114

The dashed part of the orbit path shows where the satellite is in the earth's shadow,  

DLR